Location: D�nning
(49.2479°N, 12.8491°E)
Time: 05:41:30
(UTC+00:00)

CZ-4C R/B - Pass Details

Date: 18 September 2020
Orbit: 626 x 1376 km, 63.4° (Epoch: 29 October)

Event Time Altitude Azimuth Distance (km) Brightness Sun altitude
Exits shadow 23:02:00 27° 26° (NNE) 1,671 4.1 -39.4°
Drops below altitude 10° 23:05:04 10° 39° (NE) 2,734 5.3 -39.4°
Sets 23:08:00 0° 44° (NE) 3,814 6.1 -39.3°
